User: anonymous   Login
Location: Slidell
(30.2789°N, 89.7378°W)
Time: 08:59:50
(UTC-06:00)
Language:

Cosmos 2360 Rocket - Orbit

View from above orbital plane
View from above orbital plane
View from above satellite
View from above satellite

Ground track
Ground track

The orbit data is extracted from the following two-line orbital elements,

1 25407U 98045B   15061.17582618 -.00000099  00000-0 -26346-4 0  9990
2 25407 071.0136 002.4032 0006329 029.0211 331.1262 14.15696934857572
Epoch (UTC): 02 March 2015 04:13:11
Eccentricity: 0.0006329
inclination: 71.0136°
perigee height: 835 km
apogee height: 844 km
right ascension of ascending node: 2.4032°
argument of perigee: 29.0211°
revolutions per day: 14.15696934
mean anomaly at epoch: 331.1262°
orbit number at epoch: 85757

The dashed part of the orbit path shows where the satellite is in the earth's shadow,  

DLR